FW5107 Weather Reports


time (UTC)temp
C
wind
direction
speed
KPH
gust
KPH
rain 1hr
cm
rain 24hr
cm
rain mn
cm
humidity
%
barometer
mb
20260504174556 11 234 29.0 54.7 0.00 2.97 1.42 64 999.9
20260504173052 10 270 29.0 48.3 0.00 2.97 1.42 69 999.8
20260504171550 10 276 33.8 56.3 0.00 2.97 1.42 72 999.8
20260504081509 2 244 38.6 66.0 0.20 2.21 0.66 93 982.0
20260504044533 3 305 9.7 22.5 0.05 1.65 0.13 95 975.6
20260504043025 3 284 11.3 17.7 0.05 1.65 0.10 95 975.6
20260504041523 3 270 8.0 11.3 0.05 1.63 0.08 95 974.8
20260504040021 3 336 3.2 9.7 0.05 1.60 0.05 94 974.6
20260504034520 3 334 6.4 16.1 0.10 1.60 0.05 94 974.6
20260504033018 3 74 11.3 19.3 0.08 1.57 0.05 94 974.8
20260504031515 3 63 12.9 29.0 0.08 1.55 0.03 94 975.2
20260504030011 3 113 11.3 27.4 0.05 1.55 1.55 94 975.6
20260504024510 3 103 9.7 20.9 0.03 1.50 1.50 94 976.5
20260504023005 4 75 14.5 30.6 0.03 1.50 1.50 94 976.9
20260504021502 4 62 8.0 27.4 0.03 1.45 1.45 94 977.9
20260504020059 5 82 11.3 19.3 0.03 1.45 1.45 94 978.6
20260504014556 5 114 11.3 24.1 0.05 1.45 1.45 94 979.3
20260504013054 5 114 14.5 29.0 0.05 1.45 1.45 95 979.8
20260504011551 5 92 20.9 41.8 0.05 1.42 1.42 95 980.7
20260504010146 5 119 17.7 45.1 0.08 1.42 1.42 95 981.3
20260504004543 5 88 12.9 37.0 0.10 1.42 1.42 95 981.9
20260504003043 5 92 19.3 41.8 0.10 1.42 1.42 95 982.9
20260504001538 5 80 22.5 37.0 0.15 1.42 1.42 94 983.4
20260504000042 4 99 24.1 45.1 0.13 1.37 1.37 94 984.3
20260503234534 4 90 22.5 45.1 0.30 1.35 1.35 94 984.6
20260503233037 3 57 27.4 51.5 0.41 1.32 1.32 94 985.8
20260503231528 3 52 24.1 49.9 0.46 1.27 1.27 94 986.5
20260503230026 3 200 11.3 49.9 0.46 1.22 1.22 94 987.6
20260503224528 3 80 24.1 40.2 0.36 1.04 1.04 94 988.6
20260503223018 3 76 22.5 40.2 0.28 0.91 0.91 94 989.3
20260503221515 3 84 20.9 41.8 0.33 0.81 0.81 93 990.8
20260503220018 3 95 20.9 51.5 0.41 0.76 0.76 93 991.7
20260503214506 3 122 17.7 35.4 0.43 0.69 0.69 93 992.8
20260503213004 3 72 12.9 27.4 0.43 0.64 0.64 93 993.5
20260503211503 4 104 16.1 30.6 0.30 0.48 0.48 92 994.2
20260503210100 4 65 14.5 40.2 0.20 0.36 0.36 93 994.3
20260503204558 5 90 9.7 30.6 0.13 0.23 0.23 92 995.1
20260503203101 5 78 12.9 33.8 0.10 0.23 0.23 92 995.0
20260503201554 5 151 9.7 33.8 0.10 0.18 0.18 92 995.7
20260503200051 5 79 11.3 27.4 0.13 0.15 0.15 91 996.5
20260503194553 5 91 14.5 37.0 0.08 0.13 0.13 90 997.1
20260503193045 6 61 16.1 46.7 0.08 0.13 0.13 89 997.7
20260503191542 6 88 14.5 33.8 0.05 0.08 0.08 88 999.2
20260503190045 6 86 19.3 35.4 0.00 0.05 0.05 87 999.0
20260503184557 6 85 17.7 35.4 0.05 0.05 0.05 86 999.6
20260503183036 6 66 14.5 27.4 0.05 0.05 0.05 88 1000.7
20260503181534 6 67 12.9 24.1 0.05 0.05 0.05 87 1001.4
20260503180036 6 91 16.1 29.0 0.05 0.05 0.05 84 1002.2